Current Version              Previous Version:    01  02  03  04  05  06  07  08  09  10  11  12  13  14  15  16  17  18  19  20  21  22  23  24  25  26  27  28  29  30  
   31  32  33  34  35  36  37  38  39  40  41  42  43  44  45  46  47  48  49  50  51  52  53  54  55  56  57  58  59  60  

[Printable]
155
ASUS44 KFWD 230510
RWRTX
NORTH TEXAS HOURLY WEATHER ROUNDUP
NATIONAL WEATHER SERVICE FORT WORTH TX
1200 AM CDT SAT AUG 23 2014

NOTE: "FAIR" INDICATES FEW OR NO CLOUDS BELOW 12,000 FEET WITH NO
SIGNIFICANT WEATHER AND/OR OBSTRUCTIONS TO VISIBILITY.

TXZ118-119-230600-
DALLAS/FORT WORTH METROPLEX

CITY           SKY/WX    TMP DP  RH WIND       PRES   REMARKS
DFW AIRPORT    CLEAR     87  66  49 S12       29.95F
DALLAS LOVE    CLEAR     88  68  51 S17       29.96S HX  91
FTW MEACHAM    CLEAR     88  67  49 S14       29.95S HX  91
DAL-EXECUTIVE  CLEAR     86  67  52 S9        29.96F
FTW-ALLIANCE   CLEAR     86  66  51 S13       29.94S
FTW-NAS-JRB    CLEAR     91  64  40 S16       29.99S HX  92
FTW-SPINKS     CLEAR     85  65  52 S8        29.97F
ARLINGTON      CLEAR     87  64  46 SE12      29.96S
GRAND PRAIRIE  CLEAR     87  64  45 SE8       29.98S
ADDISON        CLEAR     88  66  47 S15G21    29.97F HX  90
MESQUITE       CLEAR     84  67  56 S8        29.97S
LANCASTER      CLEAR     83  67  59 S7        29.98S
$$

TXZ091>094-102>105-117-120-121-131>134-230600-
NORTH CENTRAL TEXAS

CITY           SKY/WX    TMP DP  RH WIND       PRES   REMARKS
SHRMAN/DENISON CLEAR     85  67  55 S15       29.97S
GAINESVILLE    CLEAR     80  66  63 SE7       29.98R
BOWIE          CLEAR     83  59  45 SE6       29.97R
BRIDGEPORT     CLEAR     87  57  35 S14       29.96S
DECATUR        CLEAR     85  63  46 S13       29.97S
DENTON         CLEAR     86  66  51 S12       29.95S
MCKINNEY       CLEAR     82  70  66 S8        29.96F
GREENVILLE     CLEAR     81  68  65 S7        29.97F
ROCKWALL       CLEAR     83  70  65 S7        29.96S
TERRELL        CLEAR     84  69  60 S10       29.98S
WAXAHACHIE     CLEAR     81  65  57 SE6       29.99S
CLEBURNE       CLEAR     84  68  58 SE9       29.99S
GRANBURY       CLEAR     88  63  43 SE8       29.98R
$$

TXZ083>090-098>101-113>116-127>130-139>142-154-155-230600-
WESTERN NORTH TEXAS

CITY           SKY/WX    TMP DP  RH WIND       PRES   REMARKS
WICHITA FALLS  CLEAR     84  54  35 S12       29.93R
WF-KICKAPOO    CLEAR     82  51  34 S9        29.95R
VERNON         CLEAR     88  43  21 S10       29.94S
ABILENE        CLEAR     84  52  33 S12       30.00R
ABILENE-DYESS  CLEAR     83  55  38 S12       29.99R
BRECKENRIDGE   CLEAR     86  48  26 S10       29.96S HAZE
GRAHAM         CLEAR     88  54  31 SE9G16    29.95R
MINERAL WELLS  CLEAR     83  59  44 S8        29.95S
STEPHENVILLE   CLEAR     83  57  41 S3        30.02S
COMANCHE       CLEAR     83  57  40 S9        30.00S
BROWNWOOD      PTCLDY    82  54  36 SE8       30.00S
COLEMAN        CLEAR     77  55  46 S5        30.00F
BRADY          CLEAR     81  55  41 SE9       30.02S
$$

TXZ143>147-156>162-174-175-230600-
CENTRAL TEXAS

CITY           SKY/WX    TMP DP  RH WIND       PRES   REMARKS
WACO           CLEAR     87  68  52 S16       29.97S HX  90
WACO-MCGREGOR  CLEAR     86  63  45 S13       29.99S
HILLSBORO      CLEAR     86  64  48 SE12      29.98S
CORSICANA      CLEAR     84  70  62 SE10      29.99F
MEXIA          CLEAR     83  71  66 S8G16     29.99S
HEARNE           N/A     83  71  66 SE7       30.00S
CAMERON        CLEAR     86  70  58 S13G21    29.99S HX  91
TEMPLE         CLEAR     84  64  51 S15       29.99S
KILLEEN        CLEAR     84  63  48 S10       30.00R
KILLEEN-SKYLRK CLEAR     86  61  42 S13G18    30.00R
FORT HOOD      CLEAR     88  61  40 SE14      30.00R
GATESVILLE     CLEAR     86  63  45 S7        30.01S
HAMILTON       CLEAR     83  59  43 SE8       30.01S
LAMPASAS       CLEAR     84  62  47 S10       30.00S
$$

TXZ095>097-106>112-122>126-135>138-148>153-164>167-230600-
EAST TEXAS

CITY           SKY/WX    TMP DP  RH WIND       PRES   REMARKS
PARIS          CLEAR     79  66  65 S7        29.98F
SULPHUR SPRNGS CLEAR     83  71  65 S8        30.01R
CLARKSVILLE    MOCLDY    80  69  69 SE3       29.98S
MOUNT PLEASANT CLEAR     78  70  77 SE3       30.01S
GILMER         CLEAR     82  72  69 S6        30.01S
MINEOLA        CLEAR     82  73  74 SE5       30.00R
TYLER          CLEAR     83  70  64 S8        29.99F
LONGVIEW       CLEAR     79  70  74 S7        29.99F
MARSHALL       CLEAR     79  74  86 CALM      30.02F
ATHENS         CLEAR     81  70  69 S5        29.99S
PALESTINE      CLEAR     81  72  73 SE5       30.01F
JACKSONVILLE   CLEAR     81  71  73 S8        30.04S
HENDERSON      CLEAR     77  71  80 CALM      30.01F
NACOGDOCHES    CLEAR     79  72  78 S5        30.02S
LUFKIN         CLEAR     82  74  76 S5        30.02S
$$

SUPPLEMENTAL OBSERVATIONS (CENTRAL)

CITY           SKY/WX    TMP DP  RH WIND       PRES   REMARKS
PAT MAYSE LAKE   N/A     82  70  65 SE12        N/A
PALESTINE        N/A     82  72  69 S6          N/A
MCGREGOR         N/A     84  64  51 S13         N/A
TEMPLE           N/A     84  66  54 S9G17       N/A
$$

SUPPLEMENTAL OBSERVATIONS (WEST)

CITY           SKY/WX    TMP DP  RH WIND       PRES   REMARKS
MILLERS CREEK    N/A     82  45  26 S9          N/A
POSSUM KINGDOM   N/A     86  54  32 S7          N/A
GRANBURY         N/A     88  63  42 SE10        N/A
HAMBY            N/A     82  50  32 S12         N/A
IVIE RESERVOIR   N/A     79  54  41 SE3         N/A
COLORADO BEND    N/A     84  57  39 S9          N/A
$$

SUPPLEMENTAL OBSERVATIONS (EAST)

CITY           SKY/WX    TMP DP  RH WIND       PRES   REMARKS
CLARKSVILLE      N/A     79  70  73 S5          N/A
TEXARKANA        N/A     73  70  88 CALM        N/A
LINDEN           N/A     79  72  78 S1          N/A
GILMER           N/A     81  70  69 S5          N/A
HENDERSON        N/A     79  72  78 S6          N/A
N SABINE NF      N/A     75  70  83 MISG        N/A
S SABINE NF      N/A     75  72  88 CALM        N/A
$$

SUPPLEMENTAL OBSERVATIONS ARE A COLLECTION OF AUTOMATED INSTRUMENTS
THAT ARE MAINTAINED BY A VARIETY OF FEDERAL AND STATE AGENCIES.
CERTAIN ELEMENTS...SUCH AS HUMIDITY VALUES AND SUSTAINED WIND
SPEEDS...MAY BE APPROXIMATED.




147
ASUS44 KEWX 230510
RWRTX
SOUTH TEXAS REGIONAL WEATHER ROUNDUP
NATIONAL WEATHER SERVICE AUSTIN/SAN ANTONIO TX
1200 AM CDT SAT AUG 23 2014

NOTE: "FAIR" INDICATED FEW OR NO CLOUDS BELOW 12,000 FEET WITH NO
SIGNIFICANT WEATHER AND/OR OBSTRUCTIONS TO VISIBILITY.

* - THESE STATIONS ARE NOT NWS OR FAA STATIONS...AND ARE NOT SUBJECT
    TO NWS AND FAA QUALITY CONTROL.

TXZ171-172-183>190-230600-
TEXAS HILL COUNTRY AND EDWARDS PLATEAU

CITY           SKY/WX    TMP DP  RH WIND       PRES   REMARKS
JUNCTION       CLEAR     82  58  43 SE15G24   30.03R
*LLANO         CLEAR     88  57  35 S8        30.04R
BURNET         CLEAR     85  59  41 S8G16     30.05R
*HORSESHOE BAY CLEAR     84  57  38 S9        30.01S
*KERRVILLE     CLEAR     79  58  48 SE10      30.06R
*FREDERICKSBRG CLEAR     81  58  45 S8        30.05R
*ROCKSPRINGS   CLEAR     81  63  54 SE12G23   30.08R
*BOERNE STAGE  CLEAR     79  61  53 S12G17    30.06R
*CASTROVILLE   CLEAR     82  63  52 SE13      30.03S
HONDO          CLEAR     82  67  60 SE16G25   30.03R
*UVALDE        CLEAR     85  68  55 SE15G22   30.00R
DEL RIO        CLEAR     88  50  27 SE12      29.94R
LAUGHLIN AFB   CLEAR     83  53  34 SE9       29.96R
CARRIZO SPRGS  CLEAR     86  66  51 SE14G20   29.95S
$$

TXZ173-191>194-202-209-217>225-228-230600-
CENTRAL AND SOUTH CENTRAL TEXAS

CITY           SKY/WX    TMP DP  RH WIND       PRES   REMARKS
GEORGETOWN     CLEAR     86  64  48 S13G20    30.02R
AUSTIN/BERGSTM CLEAR     83  70  64 S13       30.00R
AUSTIN/MABRY   CLEAR     84  68  58 S9G17     30.02R
*AUSTIN/EXEC     N/A     82  68  61 S9        30.01S
*LAGO VISTA    CLEAR     84  63  49 S12G20    30.04R
SAN MARCOS     CLEAR     82  66  57 S12       30.03S
NEW BRAUNFELS  CLEAR     80  69  69 S9        30.01R
RANDOLPH AFB   CLEAR     80  68  66 S10       30.03R
PT SAN ANTONIO CLEAR     81  67  62 SE12      30.01R
SAN ANTONIO    CLEAR     82  69  64 S17       30.03R
STINSON FIELD  CLEAR     81  69  67 SE8       30.00R
*PLEASANTON    CLEAR     81  71  70 SE12G17   30.01F
*LA GRANGE     CLEAR     82  77  84 S7        30.01S HX  91
*GIDDINGS      CLEAR     82  73  75 S6        30.06S
*GONZALES      CLEAR     82  76  83 SE10      30.01S
$$

TXZ163>164-176>182-195>201-210>213-226-227-235-230600-
SOUTHEAST TEXAS

CITY           SKY/WX    TMP DP  RH WIND       PRES   REMARKS
COLLEGE STN    CLEAR     83  72  69 S13       30.01S
*BRYAN         CLEAR     82  72  69 S10       30.01S
*CALDWELL      CLEAR     82  73  74 S10       30.04S
*CROCKETT      CLEAR     82  77  83 S5        30.04S HX  91
*BRENHAM       CLEAR     83  74  75 S9        30.03S HX  90
HUNTSVILLE     CLEAR     82  73  74 S6        30.02S
CONROE         CLEAR     77  74  90 SE6       30.03S
HOUSTON BUSH   PTCLDY    81  74  79 S3        30.02F
HOUSTON HOBBY  CLEAR     79  74  84 S3        30.01F
*HOUSTON SW AP CLEAR     75  75 100 MISG      30.02F
PEARLAND       CLEAR     80  74  81 CALM      30.03F
HOUSTON HOOKS  CLEAR     81  75  82 S6        30.02S
ELLINGTON FLD  PTCLDY    81  73  78 S5        30.04S
SUGAR LAND     CLEAR     78  74  87 S3        30.01F
*HOUSTON EXEC  NOT AVBL
*CLEVELAND MUN CLEAR     76  74  93 CALM      30.03F
*WHARTON       CLEAR     75  73  92 CALM      30.03S
$$

TXZ214>216-236>238-230600-
THE UPPER TEXAS COAST

CITY           SKY/WX    TMP DP  RH WIND       PRES   REMARKS
*ORANGE        CLEAR     80  76  87 CALM      30.04S
PORT ARTHUR    CLEAR     78  76  93 S5        30.02F
GALVESTON      CLEAR     84  77  79 S10       30.03F HX  94
ANGLETON       CLEAR     75  73  93 CALM      30.02F
*BAY CITY      CLEAR     79  79 100 SE3       30.02S
PALACIOS       CLEAR     84  76  76 S10       30.01F HX  93
$$

TXZ229>234-239>247-230600-
TEXAS COASTAL BEND AND RIO GRANDE PLAINS

CITY           SKY/WX    TMP DP  RH WIND       PRES   REMARKS
VICTORIA       CLEAR     80  76  87 SE9       30.01F
*BEEVILLE      CLEAR     80  75  85 SE5       30.01S
ROCKPORT       CLEAR     84  76  76 SE13      30.00F HX  93
*PORT ARANSAS  CLEAR     82  77  87 SE8       30.00F HX  90
*PORT LAVACA   CLEAR     77  74  90 SE7       30.00F
*INGLESIDE     CLEAR     83  76  78 SE10      29.99F HX  91
CORPUS CHRISTI PTCLDY    81  74  79 SE9       29.99F
CORPUS NAS     CLEAR     83  77  82 SE14      29.99F HX  92
*ROBSTOWN      CLEAR     82  75  80 SE7       30.00S
ALICE          CLEAR     80  75  84 SE10      29.99F
KINGSVILLE NAS CLEAR     81  77  88 SE8       29.99F
COTULLA        CLEAR     84  66  54 SE15      29.99R
*FAITH RANCH   CLEAR     90  54  29 SE14G21   29.96R
LAREDO         CLEAR     85  70  60 SE18G25   30.00S
$$

TXZ248>255-230600-
DEEP SOUTH TEXAS

CITY           SKY/WX    TMP DP  RH WIND       PRES   REMARKS
BROWNSVILLE    CLEAR     81  77  88 SE5       30.00F
PORT ISABEL    CLEAR     84  77  79 SE9       30.00S HX  94
*SOUTH PADRE     N/A     81  79  94 SE7       30.00F
HARLINGEN      CLEAR     81  77  88 SE10      29.99S
*HEBBRONVILLE  CLEAR     80  71  74 SE10      30.03R
MCALLEN        CLEAR     82  75  79 SE13      30.00R
*WESLACO       CLEAR     82  74  75 SE8       29.99S
FALFURRIAS     CLEAR     83  75  77 SE6       29.99F HX  90
EDINBURG       CLEAR     82  74  75 SE7       30.00S
*ZAPATA        CLEAR     85  64  50 SE12G20   29.99S
$$

TXZ213>215-236>238-242>244-246-247-251-254-255-230600-
CMAN STATIONS

STATION/POSITION TIME  TEMP    WIND        PRES    WAVE
                       AIR SEA DIR/SP/G            HT/PER
                 (UTC) (F)     (DEG/KT/KT) (MB)    (FT/S)
SABINE PASS      0500   84 88  200/  5/  7 1016.9
SEA RIM ST PARK  0500   85     200/  8/ 11 1017.1
NORTH JETTY/GLS  0500   85 88  190/ 12/ 14   N/A
EAGLE POINT      0500   85 88  190/ 10/ 12 1016.5
MORGANS POINT    0500   84     190/  5/  8 1016.5
MISSION/ARANSAS  0400   83     140/ 14     1017.0
PORT O`CONNOR    0500          140/ 14/ 16   N/A
PORT ARANSAS     0500   82 85  130/ 10/ 11 1016.4
MALAQUITE BEACH  0500      81  130/  9/ 11 1015.1
BAFFIN BAY       0500      83  130/  8/ 11 1015.7
PORT ISABEL      0500      83  110/  7/  9 1016.2
$$

GMZ080-GMZ150>470-230600-
OFFSHORE BUOY REPORTS

STATION/POSITION TIME  TEMP    WIND        PRES    WAVE
                       AIR SEA DIR/SP/G            HT/PER
                 (UTC) (F)     (DEG/KT/KT) (MB)    (FT/S)
90 E PT ARANSAS  0500   85 85  140/ 12/ 14 1016.7    2/ 6
35 NE PT MANSFLD 0500   85 85  140/ 14/ 16 1015.4    3/ 4
200 E PT ISABEL  0500   85 86  110/ 14/ 16 1016.3    2/ 4
$$